Location: Ku?niki
(51.4449°N, 17.8974°E)
Time: 15:12:15
(UTC+00:00)

ATLAS CENTAUR R/B - Pass Details

Date: 18 September 2020
Orbit: 479 x 667 km, 64.7° (Epoch: 12 October)

Event Time Altitude Azimuth Distance (km) Brightness Sun altitude
Rises 21:10:14 0° 317° (NW) 2,571 5.7 -33.6°
Reaches altitude 10° 21:13:16 10° 344° (NNW) 1,672 4.6 -33.9°
Enters shadow 21:13:42 11° 350° (N) 1,586 4.4 -33.9°
